"Pseudo-MPEC" for P213sPF

Created 2020 Aug 4 17:07:15 UT using Find_Orb

Click here for an explanation of pseudo-MPECs

 
 Astrometry: 
     P213sPF  C2020 07 31RKeMPOkysNMO1_AstrometryA5_vplr#y@;(5*/1redacted;74PF52
     P213sPF  C2020 07 31ddVdy^kNIPIP@cjURmTrc\aGEr^YIIDOYb(=S1g^ZqXCQHR)p,UYF52
     P213sPF  C2020 07 31C=hieH8hlAGTJa5+EoV#m-E6v,l/O/5=RT?kvefCs6b[%GZO$8B1F52
     P213sPF  C2020 07 31AHnMn#Wlt/!click9Tw%Aux17378nf,b($)*rWxO3/u-P!sNZn#XF52
     P213sPF  C2020 08 01%nF,:\ID+X(5P9gYLv.4:_iggI[Dhere[;8'WDunGulRSNg]g.pnF52
     P213sPF  C2020 08 01*Y\yrKf_t]U=u7N?2vAbiso=;-_IWS.65-.`MG4O*CF%ZuyGKtc:F52
     P213sPF  C2020 08 01mX2b?qfw$t39[vS.CA^Nd^-yY`F+Z/y(AeDa\0^:^K-?G`Nk[fsFF52
     P213sPF  C2020 08 01JZy^AEC!.v]Ob(jxlN9+TFJ!aRFBr?BwA[ufXPNT4XpHo.Qb9+.`F52
     P213sPF  C2020 08 01oJ-lC4tZVUUvg,%u@]l6+ax\IlA10([for45M1o;+PK:_'E'#?doF51
     P213sPF  C2020 08 01UI0.`explanation3'xd/Yxx`dnox'07)k]0nN=2x'@^nt?m^O6'F51

Station data:
(F51) Pan-STARRS 1, Haleakala  (N20.707235 W156.255910)  US/Hawaii.
   Observers N. Primak, A. Schultz, S. Watters, J. Thiel, T. Goggia. Measurer
   PS1 Science Consortium. 1.8-m Ritchey-Chrétien + CCD.
(F52) Pan-STARRS 2, Haleakala  (N20.707384 W156.255910)  US/Hawaii. 1.8-m
   Ritchey-Chrétien + CCD.

Orbital elements:  P213sPF
   Perihelion 2020 Jun 17.971110 +/- 77.7 TT = 23:18:23 (JD 2459018.471110)
Epoch 2020 Aug  1.0 TT = JDT 2459062.5   Earth MOID: 0.5770   AutoNEOCP
M   8.52582455 +/- 47               (J2000 ecliptic)
n   0.19364159 +/- 0.245            Peri.   34.17930 +/- 100
a   2.95894534 +/- 2.5              Node   285.48584 +/- 23
e   0.4712774 +/- 0.237             Incl.   16.86000 +/- 3.1
P   5.09                   H 18.6   G  0.15   U 11.8  SR
q 1.56446107 +/- 0.553    Q 4.35342961 +/- 23.7
From 10 observations 2020 July 31-Aug. 1 (26.1 hr); mean residual 0".23
Residuals in arcseconds: 
200731 F52  .08+  .11+    200801 F52  .14-  .26-    200801 F51  .31+  .16+    
200731 F52  .02-  .05+    200801 F52  .33-  .01-    200801 F51  .63+  .25+    
200731 F52  .01-  .17-    200801 F52  .50-  .03-    
200731 F52  .02-  .02+    200801 F52  .01-  .13-    

Ephemerides (geocentric):
Date (UTC) HH   RA              Dec         delta   r     elong  mag " sig PA
---- -- -- --  -------------   -----------  ------ ------ -----  --- ---- ---
2020 08 04 17  00 52 04.006   +31 54 53.27  1.0242 1.6272 105.9 21.2  125 123
2020 08 04 18  00 52 06.395   +31 55 49.61  1.0241 1.6273 105.9 21.2  127 123
2020 08 04 19  00 52 08.780   +31 56 45.93  1.0239 1.6274 106.0 21.2  130 123
2020 08 04 20  00 52 11.162   +31 57 42.23  1.0238 1.6275 106.0 21.2  133 123
2020 08 04 21  00 52 13.540   +31 58 38.50  1.0236 1.6276 106.0 21.2  136 123
2020 08 04 22  00 52 15.916   +31 59 34.74  1.0235 1.6277 106.0 21.2  139 123
2020 08 04 23  00 52 18.287   +32 00 30.95  1.0234 1.6278 106.0 21.2  143 123
2020 08 05 00  00 52 20.656   +32 01 27.14  1.0232 1.6279 106.1 21.2  146 123
2020 08 05 01  00 52 23.021   +32 02 23.30  1.0231 1.6280 106.1 21.2  149 123
2020 08 05 02  00 52 25.382   +32 03 19.43  1.0230 1.6281 106.1 21.2  152 123
2020 08 05 03  00 52 27.741   +32 04 15.54  1.0228 1.6283 106.1 21.2  155 123
2020 08 05 04  00 52 30.095   +32 05 11.62  1.0227 1.6284 106.1 21.2  159 123
2020 08 05 05  00 52 32.447   +32 06 07.67  1.0226 1.6285 106.2 21.2  162 123
2020 08 05 06  00 52 34.795   +32 07 03.69  1.0224 1.6286 106.2 21.2  165 123
2020 08 05 07  00 52 37.139   +32 07 59.69  1.0223 1.6287 106.2 21.2  169 123
2020 08 05 08  00 52 39.481   +32 08 55.66  1.0221 1.6288 106.2 21.2  172 123
2020 08 05 09  00 52 41.818   +32 09 51.61  1.0220 1.6289 106.2 21.2  175 123
2020 08 05 10  00 52 44.153   +32 10 47.52  1.0219 1.6290 106.3 21.2  179 123
2020 08 05 11  00 52 46.484   +32 11 43.41  1.0217 1.6291 106.3 21.2  182 123
2020 08 05 12  00 52 48.811   +32 12 39.28  1.0216 1.6292 106.3 21.2  186 123
2020 08 05 13  00 52 51.135   +32 13 35.11  1.0215 1.6293 106.3 21.2  190 123
2020 08 05 14  00 52 53.456   +32 14 30.92  1.0213 1.6294 106.3 21.2  193 123
2020 08 05 15  00 52 55.773   +32 15 26.70  1.0212 1.6295 106.4 21.2  197 123
2020 08 05 16  00 52 58.087   +32 16 22.45  1.0211 1.6296 106.4 21.2  201 123
2020 08 05 17  00 53 00.397   +32 17 18.18  1.0209 1.6298 106.4 21.2  204 123
2020 08 05 18  00 53 02.704   +32 18 13.88  1.0208 1.6299 106.4 21.2  208 123
2020 08 05 19  00 53 05.007   +32 19 09.55  1.0207 1.6300 106.4 21.2  212 123
2020 08 05 20  00 53 07.307   +32 20 05.20  1.0205 1.6301 106.5 21.2  216 123
2020 08 05 21  00 53 09.604   +32 21 00.81  1.0204 1.6302 106.5 21.2  220 123
2020 08 05 22  00 53 11.897   +32 21 56.40  1.0203 1.6303 106.5 21.2  223 123
2020 08 05 23  00 53 14.187   +32 22 51.96  1.0201 1.6304 106.5 21.2  227 123
2020 08 06 00  00 53 16.473   +32 23 47.50  1.0200 1.6305 106.6 21.2  231 123
2020 08 06 01  00 53 18.755   +32 24 43.00  1.0198 1.6306 106.6 21.2  235 123
2020 08 06 02  00 53 21.035   +32 25 38.48  1.0197 1.6307 106.6 21.2  239 123
2020 08 06 03  00 53 23.310   +32 26 33.94  1.0196 1.6308 106.6 21.2  243 123
2020 08 06 04  00 53 25.582   +32 27 29.36  1.0194 1.6309 106.6 21.2  248 123
2020 08 06 05  00 53 27.851   +32 28 24.76  1.0193 1.6311 106.7 21.2  252 123
2020 08 06 06  00 53 30.117   +32 29 20.13  1.0192 1.6312 106.7 21.2  256 123
2020 08 06 07  00 53 32.378   +32 30 15.47  1.0190 1.6313 106.7 21.2  260 123
2020 08 06 08  00 53 34.637   +32 31 10.78  1.0189 1.6314 106.7 21.2  264 123
2020 08 06 09  00 53 36.891   +32 32 06.07  1.0188 1.6315 106.7 21.2  269 123
2020 08 06 10  00 53 39.143   +32 33 01.32  1.0186 1.6316 106.8 21.2  273 123
2020 08 06 11  00 53 41.391   +32 33 56.55  1.0185 1.6317 106.8 21.2  277 123
2020 08 06 12  00 53 43.635   +32 34 51.76  1.0184 1.6318 106.8 21.2  282 123
2020 08 06 13  00 53 45.876   +32 35 46.93  1.0182 1.6319 106.8 21.2  286 123
2020 08 06 14  00 53 48.113   +32 36 42.08  1.0181 1.6320 106.8 21.2  291 123
2020 08 06 15  00 53 50.347   +32 37 37.19  1.0180 1.6321 106.9 21.2  295 123
2020 08 06 16  00 53 52.577   +32 38 32.29  1.0178 1.6323 106.9 21.2  300 123